This demonstration page uses our WeatherBlox Daily Observations layout. Learn more.

Left ArrowRight Arrow

41.12389, -100.76542

Hourly Observations for March 12, 2019

Temp ( °F °C ) Dew Point ( °F °C ) Humidity (%) Winds ( mph kmh ) Pressure ( in mb ) Visibility ( mi km ) Precip ( " mm )
12:09 am 00:09 Cloudy 38 3.3 32 0 79 79 S 10 17 30.18 1022 10 16 0.00 0.00
12:19 am 00:19 Cloudy 39 3.9 33 0.6 79 79 S 8 13 30.17 1022 10 16 0.00 0.00
12:53 am 00:53 Cloudy 40 4.4 33 0.6 77 77 SSE 5 7 30.12 1020 10 16 0.00 0.00
1:53 am 01:53 Cloudy 41 5 34 1.1 76 76 S 8 13 30.09 1019 10 16 0.00 0.00
2:07 am 02:07 Cloudy 41 5 34 1.1 76 76 S 10 17 30.12 1020 10 16 0.00 0.00
2:53 am 02:53 Cloudy 41 5 35 1.7 79 79 S 12 19 30.07 1018 10 16 0.00 0.00
3:38 am 03:38 Cloudy 40 4.4 37 2.8 89 89 S 7 11 30.08 1019 9 14 0.00 0.00
3:53 am 03:53 Cloudy 40 4.4 37 2.8 89 89 SSE 3 6 30.05 1018 9 14 0.00 0.00
4:53 am 04:53 Cloudy 39 3.9 37 2.8 93 93 SE 3 6 30.01 1016 7 11 0.00 0.00
5:48 am 05:48 Cloudy with Mist and Fog 39 4 37 3 93 93 ESE 3 6 30.02 1017 3 4 0.00 0.00
5:49 am 05:49 Cloudy with Mist and Fog 38 3.3 37 2.8 97 97 ESE 3 6 29.99 1016 3 4 0.00 0.00
6:23 am 06:23 Cloudy with Mist and Fog 39 3.9 37 2.8 93 93 SSE 5 7 30.01 1016 3 5 0.00 0.00
6:53 am 06:53 Cloudy with Mist and Fog 39 3.9 38 3.3 96 96 SSE 6 9 29.97 1015 5 8 0.00 0.00
7:15 am 07:15 Cloudy with Mist and Fog 39 3.9 38 3.3 96 96 S 3 6 30.00 1016 2 3 0.00 0.00
7:21 am 07:21 Cloudy with Mist and Fog 39 3.9 38 3.3 96 96 SSE 5 7 29.99 1016 1 2 0.00 0.00
7:34 am 07:34 Cloudy with Mist and Fog 39 3.9 38 3.3 96 96 S 6 9 29.99 1016 1 1 0.00 0.00
7:53 am 07:53 Cloudy with Light Rain 39 3.9 39 3.9 100 100 S 6 9 29.95 1014 1 1 0.00 0.03
8:00 am 08:00 Cloudy with Light Rain 39 3.9 39 3.9 100 100 S 5 7 29.98 1015 1 2 0.01 0.25
8:12 am 08:12 Mostly Cloudy with Light Rain 40 4.4 39 3.9 97 97 VRB 3 6 29.96 1015 1 1 0.01 0.25
8:22 am 08:22 Mostly Cloudy with Fog 40 4.4 39 3.9 97 97 S 5 7 29.95 1014 0 0 0.01 0.25
8:53 am 08:53 Mostly Cloudy with Light Rain 40 4.4 39 3.9 97 97 S 6 9 29.91 1013 1 1 0.01 0.25
9:16 am 09:16 Cloudy with Mist and Fog 40 4.4 40 4.4 100 100 S 8 13 29.93 1014 1 2 0.00 0.03
9:32 am 09:32 Cloudy with Mist and Fog 41 5 40 4.4 96 96 S 7 11 29.92 1013 2 3 0.00 0.03
9:42 am 09:42 Cloudy with Mist and Fog 41 5 40 4.4 96 96 S 7 11 29.93 1013 3 4 0.00 0.03
9:50 am 09:50 Cloudy with Mist and Fog 41 5 39 4 93 93 undefined N/A 29.93 1013 3 5 0.00 0.03
9:53 am 09:53 Cloudy with Mist and Fog 41 5 40 4.4 96 96 VRB 5 7 29.91 1013 3 5 0.00 0.03
10:40 am 10:40 Cloudy with Mist and Fog 41 5 40 4.4 96 96 SW 8 13 29.91 1013 2 3 0.00 0.00
10:46 am 10:46 Cloudy with Mist and Fog 41 5 40 4.4 96 96 S 7 11 29.91 1013 1 2 0.00 0.00
10:53 am 10:53 Cloudy with Mist and Fog 41 5 41 5 100 100 S 6 9 29.88 1012 1 2 0.00 0.00
11:12 am 11:12 Cloudy with Mist and Fog 42 5.6 41 5 96 96 SSW 5 7 29.89 1012 1 1 0.00 0.00
11:53 am 11:53 Mostly Cloudy with Fog 42 5.6 41 5 96 96 SSW 7 11 29.86 1011 0 0 0.00 0.00
12:28 pm 12:28 Mostly Cloudy with Fog 43 6.1 42 5.6 97 97 SSW 6 9 29.84 1010 1 1 0.00 0.00
12:53 pm 12:53 Mostly Cloudy with Fog 43 6.1 42 5.6 97 97 S 5 7 29.82 1010 1 1 0.00 0.00
1:34 pm 13:34 Cloudy with Mist and Fog 44 6.7 43 6.1 96 96 SSW 3 6 29.81 1009 1 2 0.00 0.00
1:53 pm 13:53 Cloudy with Mist and Fog 45 7.2 44 6.7 97 97 S 6 9 29.78 1009 2 2 0.00 0.00
2:12 pm 14:12 Cloudy with Mist and Fog 46 7.8 45 7.2 96 96 S 5 7 29.76 1008 2 3 0.00 0.00
2:26 pm 14:26 Cloudy with Mist and Fog 46 7.8 44 6.7 93 93 SSW 5 7 29.75 1007 3 5 0.00 0.00
2:53 pm 14:53 Cloudy with Mist and Fog 46 7.8 45 7.2 96 96 S 9 15 29.73 1007 6 10 0.00 0.00
3:16 pm 15:16 Cloudy 47 8.3 45 7.2 93 93 SSW 6 9 29.71 1006 8 13 0.00 0.00
3:53 pm 15:53 Cloudy 50 10 46 7.8 86 86 SSW 7 11 29.70 1006 10 16 0.00 0.00
4:28 pm 16:28 Partly Cloudy 52 11.1 46 7.8 80 80 VRB 3 6 29.65 1004 10 16 0.00 0.00
4:53 pm 16:53 Sunny 54 12.2 46 7.8 75 75 S 5 7 29.66 1005 10 16 0.00 0.00
5:53 pm 17:53 Mostly Sunny 51 10.6 46 7.8 83 83 ESE 16 26 29.66 1004 10 16 0.00 0.00
6:15 pm 18:15 Mostly Cloudy 50 10 46 7.8 86 86 SE 12 19 29.63 1004 10 16 0.00 0.00
6:40 pm 18:40 Cloudy 50 10 46 7.8 86 86 ESE 8 13 29.62 1003 10 16 0.00 0.00
6:53 pm 18:53 Cloudy 50 10 46 7.8 86 86 E 8 13 29.64 1004 10 16 0.00 0.00
7:53 pm 19:53 Cloudy 46 7.8 44 6.7 93 93 SE 8 13 29.64 1004 9 14 0.00 0.00
8:53 pm 20:53 Cloudy 44 6.7 43 6.1 96 96 ESE 6 9 29.63 1003 7 11 0.00 0.00
9:15 pm 21:15 Cloudy 45 7.2 43 6.1 93 93 SE 7 11 29.63 1003 7 11 0.00 0.00
9:24 pm 21:24 Cloudy 45 7.2 43 6.1 93 93 SE 10 17 29.63 1003 7 11 0.00 0.00
9:53 pm 21:53 Cloudy with Mist and Fog 44 6.7 43 6.1 96 96 SE 10 17 29.61 1003 4 6 0.00 0.00
10:07 pm 22:07 Cloudy with Mist and Fog 45 7.2 44 6.7 97 97 SE 12 19 29.62 1003 2 3 0.00 0.00
10:15 pm 22:15 Mostly Cloudy with Mist and Fog 45 7.2 44 6.7 97 97 SE 13 20 29.61 1003 1 1 0.00 0.00
10:40 pm 22:40 Mostly Cloudy with Fog 45 7.2 44 6.7 97 97 ESE 8 13 29.61 1003 0 0 0.00 0.00
10:53 pm 22:53 Mostly Cloudy with Fog 45 7.2 44 6.7 97 97 SE 8 13 29.60 1002 0 0 0.00 0.00
11:53 pm 23:53 Mostly Cloudy with Fog 45 7.2 44 6.7 97 97 SE 12 19 29.57 1001 0 0 0.00 0.00

Powered by AerisWeather